Anchorage Merrill, AK

3:45 PM AKDT on June 25, 2017 (GMT -0800)
Merrill

Weather History for PAMR - September, 2011

Change the Weather History Date:

Thursday, September 8, 2011

  Actual Average Record
Temperature  
Mean Temperature 56 °F -  
Max Temperature 64 °F 57 °F 65 °F (1993)
Min Temperature 48 °F 42 °F 37 °F (2001)
Degree Days  
Heating Degree Days 9    
Growing Degree Days 6 (Base 50)    
Moisture  
Dew Point 43 °F    
Average Humidity 63    
Maximum Humidity 83    
Minimum Humidity 43    
Precipitation  
Precipitation 0.00 in - - ()
Sea Level Pressure  
Sea Level Pressure 29.93 in    
Wind  
Wind Speed 3 mph (WNW)    
Max Wind Speed 8 mph    
Max Gust Speed -    
Visibility 10 miles    
Events      
Averages and records for this station are not official NWS values.
T = Trace of Precipitation, MM = Missing Value Source: NWS Daily Summary

Daily Weather History Graph

Daily Weather History Graph

Search for Another Location

Airport or City:

Trip Planner

Search our weather history database for the weather conditions in past years. The results will help you decide how hot, cold, wet, or windy it might be!

Date:

Astronomy

Sep. 08, 2011 Rise Set
Actual Time 7:08 AM AKDT 8:44 PM AKDT
Civil Twilight 6:23 AM AKDT 9:29 PM AKDT
Nautical Twilight 5:25 AM AKDT 10:26 PM AKDT
Astronomical Twilight 4:14 AM AKDT 11:35 PM AKDT
Moon 7:22 PM AKDT (9/8) 2:43 AM AKDT (9/8)
Length of Visible Light 15h 06m
Length of Day
13h 35m
Waxing Gibbous, 88% of the Moon is Illuminated
Sep 8
Waxing Gibbous
Sep 12
Full
Sep 20
Last Quarter
Sep 27
New
Oct 3
First Quarter

Hourly Weather History & Observations

Time (AKDT) Temp. Dew Point Humidity Pressure Visibility Wind Dir Wind Speed Gust Speed Precip Events Conditions
12:53 AM 53.1 °F 45.0 °F 74% 29.86 in 10.0 mi NW 4.6 mph - N/A   Overcast
1:53 AM 52.0 °F 45.0 °F 77% 29.89 in 10.0 mi Calm Calm - N/A   Overcast
2:53 AM 51.1 °F 44.1 °F 77% 29.91 in 10.0 mi Calm Calm - N/A   Overcast
4:53 AM 50.0 °F 43.0 °F 77% 29.93 in 10.0 mi NNE 3.5 mph - N/A   Overcast
5:53 AM 48.9 °F 44.1 °F 83% 29.95 in 10.0 mi Calm Calm - N/A   Mostly Cloudy
6:53 AM 48.9 °F 43.0 °F 80% 29.96 in 10.0 mi NNE 3.5 mph - N/A   Overcast
7:53 AM 48.9 °F 43.0 °F 80% 29.98 in 10.0 mi East 6.9 mph - N/A   Mostly Cloudy
8:53 AM 52.0 °F 43.0 °F 71% 29.98 in 10.0 mi Calm Calm - N/A   Mostly Cloudy
9:53 AM 54.0 °F 45.0 °F 72% 29.99 in 10.0 mi NNW 4.6 mph - N/A   Mostly Cloudy
10:53 AM 57.9 °F 44.1 °F 60% 30.00 in 10.0 mi NW 4.6 mph - N/A   Scattered Clouds
11:53 AM 61.0 °F 43.0 °F 52% 30.00 in 10.0 mi North 3.5 mph - N/A   Scattered Clouds
12:53 PM 63.0 °F 42.1 °F 46% 30.00 in 10.0 mi Variable 3.5 mph - N/A   Scattered Clouds
1:53 PM 62.1 °F 41.0 °F 46% 29.99 in 10.0 mi West 4.6 mph - N/A   Scattered Clouds
2:53 PM 64.0 °F 41.0 °F 43% 29.97 in 10.0 mi West 5.8 mph - N/A   Partly Cloudy
3:53 PM 61.0 °F 41.0 °F 48% 29.95 in 10.0 mi South 5.8 mph - N/A   Scattered Clouds
4:53 PM 61.0 °F 41.0 °F 48% 29.93 in 10.0 mi SSW 8.1 mph - N/A   Scattered Clouds
5:53 PM 61.0 °F 39.9 °F 46% 29.91 in 10.0 mi Variable 5.8 mph - N/A   Scattered Clouds
6:53 PM 60.1 °F 39.9 °F 47% 29.90 in 10.0 mi SSW 5.8 mph - N/A   Mostly Cloudy
7:53 PM 57.9 °F 41.0 °F 53% 29.89 in 10.0 mi WSW 3.5 mph - N/A   Scattered Clouds
8:53 PM 55.9 °F 41.0 °F 57% 29.89 in 10.0 mi Calm Calm - 0.00 in   Scattered Clouds
9:53 PM 54.0 °F 43.0 °F 66% 29.88 in 10.0 mi Calm Calm - N/A   Mostly Cloudy
10:53 PM 52.0 °F 44.1 °F 74% 29.87 in 10.0 mi Calm Calm - N/A   Mostly Cloudy
11:53 PM 51.1 °F 45.0 °F 80% 29.87 in 10.0 mi Calm Calm - N/A   Mostly Cloudy